Weather History for Whiting Fld NAS, FL

Change the Weather History Date:

Wednesday, January 30, 2013

  Actual Average Record
Temperature  
Mean Temperature 60 °F -  
Max Temperature 75 °F 59 °F 75 °F (2002)
Min Temperature 46 °F 42 °F 17 °F (2014)
Degree Days  
Heating Degree Days 4    
Growing Degree Days 10 (Base 50)    
Moisture  
Dew Point 59 °F    
Average Humidity 83    
Maximum Humidity 90    
Minimum Humidity 51    
Precipitation  
Precipitation 0.46 in - - ()
Sea Level Pressure  
Sea Level Pressure 29.79 in    
Wind  
Wind Speed 21 mph (WSW)    
Max Wind Speed 31 mph    
Max Gust Speed 53 mph    
Visibility 6 miles    
Events Fog , Rain , Thunderstorm    
Averages and records for this station are not official NWS values.
T = Trace of Precipitation, MM = Missing Value Source: NWS Daily Summary

Daily Weather History Graph

Daily Weather History Graph

Search for Another Location

Airport:

Trip Planner

Search our weather history database for the weather conditions in past years. The results will help you decide how hot, cold, wet, or windy it might be!

Date:

Astronomy

Jan. 30, 2013 Rise Set
Actual Time 6:40 AM CST 5:22 PM CST
Civil Twilight 6:15 AM CST 5:48 PM CST
Nautical Twilight 5:46 AM CST 6:16 PM CST
Astronomical Twilight 5:17 AM CST 6:45 PM CST
Moon 9:00 PM CST (1/30) 8:26 AM CST (1/30)
Length of Visible Light 11h 32m
Length of Day
10h 42m
Waning Gibbous, 87% of the Moon is Illuminated
Jan 30
Waning Gibbous
Feb 3
Last Quarter
Feb 10
New
Feb 17
First Quarter
Feb 25
Full

Hourly Weather History & Observations

Time (CST) Temp. Windchill Dew Point Humidity Pressure Visibility Wind Dir Wind Speed Gust Speed Precip Events Conditions
12:56 AM 75.0 °F - 70.0 °F 84% 29.86 in 5.0 mi South 21.9 mph 31.1 mph N/A   Haze
1:56 AM 75.0 °F - 68.0 °F 79% 29.84 in 5.0 mi South 20.7 mph 28.8 mph N/A   Haze
2:56 AM 75.0 °F - 68.0 °F 79% 29.82 in 5.0 mi South 18.4 mph 25.3 mph 0.00 in   Haze
3:56 AM 75.0 °F - 68.0 °F 79% 29.80 in 5.0 mi South 23.0 mph 32.2 mph N/A   Haze
4:56 AM 75.0 °F - 68.0 °F 79% 29.76 in 6.0 mi South 24.2 mph 39.1 mph N/A   Haze
5:56 AM 73.0 °F - 69.1 °F 87% 29.76 in 6.0 mi South 20.7 mph 34.5 mph N/A   Overcast
6:56 AM 73.0 °F - 69.1 °F 87% 29.75 in 6.0 mi South 27.6 mph 35.7 mph N/A   Overcast
7:56 AM 73.0 °F - 69.1 °F 87% 29.75 in 6.0 mi South 25.3 mph 40.3 mph N/A   Overcast
8:56 AM 73.0 °F - 69.1 °F 87% 29.74 in 6.0 mi South 29.9 mph 41.4 mph N/A   Overcast
9:56 AM 73.0 °F - 70.0 °F 90% 29.73 in 5.0 mi South 27.6 mph 39.1 mph N/A   Overcast
10:56 AM 75.0 °F - 70.0 °F 84% 29.70 in 6.0 mi South 31.1 mph 51.8 mph N/A   Overcast
11:43 AM 75.2 °F - 69.8 °F 83% 29.72 in 6.0 mi SSW 31.1 mph 48.3 mph 0.00 in Rain Light Rain
11:56 AM 75.0 °F - 70.0 °F 84% 29.67 in 2.0 mi SSW 29.9 mph 52.9 mph 0.05 in Rain Heavy Rain
12:07 PM 73.4 °F - 69.8 °F 88% 29.71 in 5.0 mi SSW 28.8 mph 42.6 mph N/A Rain Light Rain
12:57 PM 73.4 °F - 69.8 °F 88% 29.69 in 5.0 mi SSW 28.8 mph 42.6 mph 0.03 in Rain Light Rain
1:35 PM 73.4 °F - 69.8 °F 88% 29.66 in 5.0 mi SSW 31.1 mph 47.2 mph N/A Rain , Thunderstorm Light Thunderstorms and Rain
1:40 PM 73.4 °F - 69.8 °F 88% 29.70 in 0.5 mi WNW 20.7 mph 48.3 mph N/A Fog , Rain , Thunderstorm Heavy Thunderstorms and Rain
1:44 PM 73.4 °F - 69.8 °F 88% 29.71 in 0.5 mi WNW 15.0 mph 48.3 mph N/A Fog , Rain , Thunderstorm Heavy Thunderstorms and Rain
1:51 PM 73.4 °F - 69.8 °F 88% 29.71 in 3.0 mi WNW 18.4 mph 29.9 mph N/A Rain , Thunderstorm Thunderstorms and Rain
1:56 PM 63.0 °F - 60.1 °F 90% 29.67 in 3.0 mi WNW 18.4 mph 29.9 mph 0.29 in Rain Rain
2:17 PM 60.8 °F - 55.4 °F 82% 29.73 in 6.0 mi West 17.3 mph 28.8 mph 0.01 in   Overcast
2:21 PM 60.8 °F - 55.4 °F 82% 29.74 in 3.0 mi West 19.6 mph 28.8 mph 0.01 in Rain Light Rain
2:56 PM 53.1 °F - 48.9 °F 86% 29.74 in 3.0 mi WNW 16.1 mph - 0.08 in Rain Light Rain
3:45 PM 53.6 °F - 48.2 °F 82% 29.79 in 10.0 mi WNW 6.9 mph - 0.00 in   Overcast
3:56 PM 53.1 °F - 48.9 °F 86% 29.75 in 10.0 mi WNW 6.9 mph - 0.00 in   Overcast
4:01 PM 53.6 °F - 48.2 °F 82% 29.80 in 10.0 mi West 9.2 mph - 0.00 in Rain Light Rain
4:56 PM 51.1 °F - 48.0 °F 89% 29.79 in 7.0 mi SW 5.8 mph - 0.03 in Rain Light Rain
5:56 PM 51.1 °F - 48.0 °F 89% 29.80 in 10.0 mi West 8.1 mph - N/A   Overcast
6:10 PM 51.8 °F - 48.2 °F 88% 29.83 in 5.0 mi West 8.1 mph - 0.01 in Rain Light Rain
6:46 PM 51.8 °F - 48.2 °F 88% 29.87 in 10.0 mi WSW 8.1 mph - 0.01 in   Overcast
6:56 PM 52.0 °F - 48.0 °F 86% 29.84 in 10.0 mi West 9.2 mph - 0.01 in   Overcast
7:56 PM 55.9 °F - 50.0 °F 80% 29.88 in 10.0 mi West 10.4 mph - N/A   Mostly Cloudy
8:56 PM 50.0 °F - 41.0 °F 71% 29.93 in 10.0 mi WNW 15.0 mph 20.7 mph N/A   Clear
9:56 PM 48.0 °F - 36.0 °F 63% 29.99 in 10.0 mi NW 18.4 mph 32.2 mph N/A   Clear
10:56 PM 46.0 °F 39.6 °F 32.0 °F 58% 30.03 in 10.0 mi NW 15.0 mph - N/A   Clear
11:56 PM 46.0 °F 39.6 °F 28.9 °F 51% 30.06 in 10.0 mi NW 15.0 mph 21.9 mph N/A   Clear